Location: Waco, TX
(31.5480°N, 97.1670°W)
Time: 13:50:31

ISS - Pass Details

Date: 15 March 2018
Orbit: 403 x 406 km, 51.6° (Epoch: 21 March)

Event Time Altitude Azimuth Distance (km) Brightness Sun altitude
Rises 01:17:10 0° 256° (WSW) 2,316 - -60.2°
Reaches altitude 10° 01:19:39 10° 275° (W) 1,459 - -60.3°
Maximum altitude 01:22:05 19° 324° (NW) 1,030 - -60.4°
Drops below altitude 10° 01:24:32 10° 12° (NNE) 1,463 - -60.4°
Sets 01:27:02 0° 31° (NNE) 2,325 - -60.5°
